[[{"header":{"parameterUnit":"m.s-1","parameterCategory":1,"la1":30.2991,"la2":30.254,"lo1":-89.0895,"lo2":-89.0444,"dy":0.0017,"dx":0.0017,"nx":28,"ny":28,"refTime":"2024-08-06T09:00:00:Z","depth":0,"parameterNumber":2,"parameterNumberName":"U-component_of_WINDS"},"data":[0,0,0,0,0,0,0,0,0,0,0,0,0,0,0,0,0,0,0,0,0,0,0,0,0,0,0,0,0,0,0,0,0,0,0,0,0,0,0,0,0,0,0,0,0,0,0,0,0,0,0,0,0,0,0,0,0,0,2.9216,2.9217,0,2.9258,2.9258,2.9259,2.9187,2.9185,2.9182,2.918,2.9227,2.923,2.9234,0,0,0,0,0,0,0,0,0,0,0,0,0,2.9081,2.9084,2.9216,2.9217,2.9217,2.9258,2.9258,2.9259,2.9187,2.9184,2.9181,2.9179,2.9226,2.923,2.9234,0,0,0,0,0,0,0,0,0,0,0,0,0,2.9133,2.9085,2.9216,2.9186,2.9184,2.9258,2.9259,2.9259,2.9188,2.9184,2.9181,2.9177,2.9224,2.9229,2.9235,2.9341,0,0,2.9251,2.9253,0,0,0,0,0,0,0,0,2.913,2.9138,2.919,2.9188,2.9186,2.9213,2.9228,2.9287,2.9189,2.9187,2.918,2.9175,2.9226,2.9231,2.9247,2.9343,2.9345,2.9251,2.9255,2.9257,2.9258,0,0,0,0,0,0,0,2.9127,2.9136,2.9233,2.9191,2.9188,2.9173,2.9176,2.9239,2.9226,2.9187,2.9181,2.9187,2.9224,2.9242,2.9247,2.9346,2.9251,2.9256,2.9259,2.9261,2.9538,2.9542,0,0,0,0,0,0,2.9126,2.9133,2.9231,2.9234,2.9148,2.9178,2.9182,2.9208,2.9225,2.9224,2.919,2.9184,2.9234,2.9241,2.9249,2.9378,2.9257,2.9262,2.9265,2.9534,2.9539,2.9543,0,0,0,0,0,0,2.9123,2.9135,2.923,2.9182,2.9193,2.9185,2.9215,2.9211,2.9229,2.9228,2.9226,2.921,2.9232,2.9241,2.932,2.9379,2.9264,2.9269,2.9529,2.9535,2.9541,2.9636,0,0,0,0,0,0,2.912,2.9135,2.9173,2.9184,2.9196,2.9298,2.9218,2.9215,2.9238,2.9229,2.9246,2.9246,2.923,2.9312,2.9325,2.9384,2.9273,2.9524,2.9532,2.9539,2.9628,2.9645,2.966,0,0,0,0,0,2.9115,2.9198,2.9175,2.9188,2.9243,2.9301,2.9309,2.9287,2.9243,2.9283,2.9283,2.9245,2.937,2.9321,2.9334,2.9396,2.952,2.953,2.9539,2.9621,2.9642,2.9659,0,0,0,0,0,0,2.9194,2.9198,2.9174,2.9262,2.9282,2.9289,2.9339,2.9309,2.9343,2.9334,2.9307,2.9312,2.9398,2.9404,2.9349,2.9503,2.9438,2.945,2.9495,2.9515,2.9531,2.9529,2.9278,0,0,0,0,0,2.9222,2.9267,2.9269,2.9346,2.9358,2.9347,2.9371,2.9353,2.9374,2.9382,2.9388,2.9411,2.9455,2.9485,2.9526,2.9628,2.9634,2.9678,2.9694,2.9707,2.9719,2.9779,2.98,2.9574,2.9574,2.9574,0,0,2.928,2.9288,2.9318,2.9363,2.9376,2.9427,2.9354,2.9409,2.9447,2.9391,2.9466,2.9472,2.9496,2.9588,2.9629,2.9596,2.9782,2.9719,2.9729,2.9734,2.9791,2.9812,2.9831,2.9581,2.9579,2.9578,0,0,2.9411,2.942,2.9488,2.9504,2.9525,2.9518,2.9535,2.9548,2.9549,2.9624,2.9584,2.963,2.9706,2.9727,2.9747,2.9892,2.986,2.9906,2.999,3.0049,3.0067,3.0082,3.0139,3.0158,2.9917,2.9917,2.9918,0,2.9481,2.9553,2.9527,2.9586,2.9609,2.956,2.9632,2.9648,2.9683,2.9701,2.9664,2.9762,2.9774,2.9873,2.9909,2.9926,2.9947,2.9904,3.0066,3.0081,3.0096,3.0149,3.017,2.9923,2.9922,2.9922,2.9921,0,2.964,2.9691,2.9744,2.9779,2.9808,2.9872,2.986,2.9892,2.9873,2.9871,2.9951,2.9965,3.001,3.0031,3.0012,3.013,3.011,3.0069,3.0004,3.0123,3.0173,3.0193,2.9931,2.9929,2.9928,2.9926,0,0,2.9821,2.9843,2.9864,2.9881,2.9904,2.9944,3.0009,3.0052,3.0084,3.011,3.0166,3.0234,3.0199,3.0222,3.0205,3.0257,3.0377,3.0211,3.0211,3.0245,3.0513,3.0546,3.0569,3.0355,3.0359,3.0362,3.0513,0,2.9955,3.0065,3.0046,3.0155,3.0205,3.0161,3.0218,3.024,3.0241,3.0286,3.0287,3.0337,3.0284,3.0299,3.0347,3.0352,3.0431,3.034,3.0412,3.0415,3.041,3.0595,3.0628,3.0769,3.0531,3.0535,3.0537,0,3.0125,3.016,3.0274,3.0293,3.0313,3.0364,3.0406,3.0447,3.0473,3.0471,3.0499,3.0474,3.0543,3.0475,3.0573,3.0512,3.054,3.0547,3.0552,3.056,3.0485,3.0612,3.0813,3.0836,3.0567,3.0564,3.0562,0,3.0252,3.0326,3.0405,3.0421,3.0444,3.0482,3.0494,3.0516,3.0545,3.0582,3.0602,3.0646,3.0671,3.0708,3.0698,3.0648,3.0799,3.0729,3.0803,3.0804,3.0838,3.0837,3.1051,3.0851,3.0851,3.085,3.085,0,3.0406,3.0478,3.0463,3.0512,3.0594,3.0572,3.0654,3.0661,3.0682,3.0734,3.0698,3.0749,3.073,3.0781,3.0773,3.0858,3.0868,3.0871,3.0869,3.0877,3.0877,3.0897,3.0888,3.0856,3.0855,3.0853,3.0852,0,3.0561,3.0553,3.0637,3.0653,3.0659,3.0719,3.0734,3.0782,3.0781,3.0848,3.0863,3.0862,3.092,3.0913,3.0977,3.0973,3.108,3.1063,3.1071,3.1069,3.1144,3.1139,3.1382,3.1415,3.119,3.1192,3.1194,0,3.0661,3.0716,3.0739,3.0771,3.0786,3.0838,3.0868,3.0851,3.0884,3.0921,3.0966,3.102,3.1063,3.1159,3.1166,3.1216,3.1204,3.1286,3.1211,3.1219,3.1211,3.1209,3.1217,3.1301,3.1304,3.1306,3.1307,0,3.0841,3.0836,3.088,3.0925,3.0962,3.0997,3.1028,3.1057,3.1043,3.1083,3.1142,3.1175,3.1243,3.1299,3.1348,3.1363,3.1336,3.1331,3.1351,3.1361,3.1365,3.1368,3.1115,3.1326,3.1324,3.1322,3.1321,3.1321,3.0975,3.1024,3.1049,3.1101,3.1123,3.1154,3.1201,3.1207,3.1255,3.1308,3.1296,3.1364,3.1393,3.1456,3.1476,3.1531,3.1502,3.153,3.1538,3.1547,3.1558,3.1354,3.154,3.1539,3.1539,3.1538,3.1538,0,3.1157,3.1171,3.1219,3.1265,3.1308,3.1276,3.131,3.1349,3.1408,3.1437,3.1481,3.1552,3.1608,3.1621,3.1675,3.1718,3.1707,3.1733,3.1731,3.1737,3.1579,3.1557,3.1741,3.1741,3.1741,3.1741,3.1741,3.1741,3.1256,3.1339,3.1338,3.1433,3.1447,3.1513,3.1536,3.1567,3.159,3.1671,3.1717,3.1724,3.1749,3.1805,3.1857,3.186,3.1884,3.1916,3.1914,3.1767,3.1747,3.1728,3.1708,3.192,3.192,3.2068,3.2069,3.207]},{"header":{"parameterUnit":"m.s-1","parameterCategory":1,"la1":30.2991,"la2":30.254,"lo1":-89.0895,"lo2":-89.0444,"dy":0.0017,"dx":0.0017,"nx":28,"ny":28,"refTime":"2024-08-06T09:00:00:Z","depth":0,"parameterNumber":3,"parameterNumberName":"V-component_of_WINDS"},"data":[0,0,0,0,0,0,0,0,0,0,0,0,0,0,0,0,0,0,0,0,0,0,0,0,0,0,0,0,0,0,0,0,0,0,0,0,0,0,0,0,0,0,0,0,0,0,0,0,0,0,0,0,0,0,0,0,0,0,0.0126,0.0128,0,0.0345,0.0348,0.035,0.0363,0.0361,0.0358,0.0356,0.0592,0.0601,0.0609,0,0,0,0,0,0,0,0,0,0,0,0,0,-0.0272,-0.0265,0.0125,0.0128,0.0131,0.0345,0.0348,0.0351,0.0364,0.0361,0.0358,0.0355,0.059,0.06,0.061,0,0,0,0,0,0,0,0,0,0,0,0,0,-0.008,-0.0262,0.0125,0.0163,0.0168,0.0344,0.0348,0.0352,0.0364,0.0361,0.0357,0.0353,0.0586,0.0599,0.0612,0.0768,0,0,0.0651,0.0657,0,0,0,0,0,0,0,0,-0.0091,-0.0066,0.0155,0.0161,0.0167,0.0323,0.0294,0.0492,0.0365,0.029,0.0356,0.0351,0.0507,0.0526,0.0576,0.0779,0.0789,0.0652,0.066,0.0666,0.067,0,0,0,0,0,0,0,-0.0104,-0.0075,0.0213,0.0158,0.0166,0.0173,0.0195,0.0332,0.0418,0.0297,0.0298,0.0323,0.0509,0.0563,0.0581,0.0793,0.0652,0.0664,0.0672,0.0677,0.1136,0.114,0,0,0,0,0,0,-0.0126,-0.0086,0.0206,0.0219,0.0026,0.0183,0.0208,0.0277,0.0416,0.0433,0.0326,0.0323,0.0543,0.0566,0.059,0.0783,0.0666,0.0678,0.0685,0.1132,0.1137,0.1142,0,0,0,0,0,0,-0.0135,-0.0101,0.0197,0.0067,0.0105,0.0193,0.027,0.0283,0.0337,0.0438,0.0455,0.0365,0.0541,0.0572,0.0723,0.0791,0.0684,0.0696,0.1127,0.1133,0.114,0.1169,0,0,0,0,0,0,-0.0147,-0.0104,-0.0046,0.0068,0.0112,0.0323,0.0274,0.029,0.0358,0.0356,0.0479,0.0496,0.054,0.0703,0.0736,0.0807,0.0706,0.1121,0.113,0.1137,0.1163,0.1176,0.1188,0,0,0,0,0,-0.0161,-0.0044,-0.0043,-0.0008,0.0186,0.0327,0.0353,0.0398,0.0363,0.0424,0.0489,0.0492,0.0778,0.0719,0.0755,0.0832,0.1117,0.1127,0.1137,0.1157,0.1174,0.1187,0,0,0,0,0,0,-0.0147,-0.0028,-0.0026,0.0131,0.0218,0.0329,0.0407,0.0414,0.0517,0.0511,0.0566,0.0594,0.0744,0.0803,0.0735,0.0991,0.0944,0.0962,0.0947,0.0963,0.0976,0.096,0.0717,0,0,0,0,0,-0.0127,-0.0026,0.0074,0.0203,0.0246,0.0319,0.0382,0.0409,0.0504,0.0542,0.0618,0.0713,0.0824,0.0897,0.1005,0.117,0.1199,0.1241,0.1253,0.1263,0.1279,0.1372,0.1393,0.1175,0.1174,0.1174,0,0,-0.0081,-0.0004,0.0057,0.0208,0.0279,0.0386,0.035,0.0465,0.0546,0.0561,0.0708,0.0767,0.0876,0.1035,0.111,0.1089,0.1345,0.1276,0.1283,0.1294,0.1384,0.1405,0.1423,0.1181,0.118,0.1179,0,0,0.0055,0.0123,0.0237,0.0308,0.0414,0.0461,0.0488,0.0598,0.0637,0.0784,0.0797,0.0895,0.1085,0.1163,0.1227,0.1391,0.1398,0.1425,0.1491,0.1581,0.1599,0.1614,0.1675,0.1695,0.1439,0.1439,0.144,0,0.0099,0.0257,0.0297,0.0411,0.0478,0.0491,0.0609,0.0677,0.0815,0.0863,0.0836,0.1074,0.1149,0.1327,0.1366,0.1418,0.1453,0.1412,0.1592,0.1608,0.1623,0.1682,0.1704,0.1442,0.1442,0.1442,0.1441,0,0.0306,0.0416,0.0496,0.0624,0.07,0.0816,0.0876,0.0949,0.0969,0.1019,0.117,0.1259,0.1386,0.1429,0.1452,0.1611,0.1595,0.158,0.1535,0.1646,0.1702,0.1724,0.1446,0.1445,0.1444,0.1444,0,0,0.0462,0.0607,0.0636,0.0694,0.0811,0.0898,0.1015,0.1135,0.1197,0.1291,0.1393,0.1552,0.1538,0.1611,0.1641,0.172,0.1846,0.1696,0.1699,0.1722,0.2029,0.2042,0.2067,0.185,0.1854,0.1858,0.2021,0,0.0613,0.0817,0.0856,0.1035,0.1138,0.1151,0.1253,0.1338,0.1388,0.1485,0.1542,0.1654,0.1626,0.167,0.1749,0.1814,0.1909,0.1802,0.1949,0.1954,0.1923,0.2095,0.2109,0.2259,0.2043,0.2046,0.2049,0,0.0817,0.0912,0.11,0.1202,0.1247,0.1338,0.145,0.1541,0.1639,0.167,0.1749,0.1771,0.1896,0.1842,0.2017,0.1944,0.2006,0.2046,0.2053,0.2072,0.201,0.212,0.2308,0.2331,0.2083,0.2081,0.2078,0,0.0914,0.1088,0.1224,0.1273,0.1395,0.1459,0.1513,0.1606,0.1675,0.1774,0.182,0.1934,0.1997,0.2086,0.2138,0.2094,0.231,0.226,0.2343,0.2342,0.239,0.2387,0.2593,0.2426,0.2425,0.2425,0.2424,0,0.108,0.1196,0.1268,0.1352,0.1482,0.1526,0.1655,0.171,0.1792,0.1889,0.1907,0.1999,0.2061,0.2162,0.2204,0.2344,0.2372,0.2403,0.2414,0.2403,0.2399,0.2447,0.2439,0.2431,0.243,0.2429,0.2427,0,0.1212,0.1264,0.1413,0.1514,0.1543,0.1635,0.1724,0.1807,0.1855,0.1978,0.2009,0.2088,0.2207,0.2267,0.2417,0.2446,0.2604,0.2607,0.257,0.2575,0.2654,0.2647,0.29,0.2936,0.2743,0.2744,0.2746,0,0.1316,0.1404,0.1514,0.1578,0.1633,0.1736,0.1805,0.1852,0.1924,0.204,0.211,0.2229,0.2328,0.2519,0.2592,0.2707,0.2714,0.2794,0.2732,0.2718,0.2718,0.2713,0.2723,0.2807,0.2809,0.281,0.2811,0,0.1496,0.1516,0.1613,0.1719,0.18,0.1887,0.1973,0.2026,0.2087,0.2168,0.2287,0.2363,0.2514,0.2634,0.2753,0.2814,0.2825,0.283,0.2855,0.2847,0.2823,0.2839,0.2603,0.2825,0.2823,0.2822,0.2822,0.2821,0.1619,0.1698,0.1786,0.1894,0.1962,0.2042,0.2124,0.2181,0.2281,0.2405,0.2427,0.2555,0.2651,0.2812,0.2875,0.2978,0.2962,0.2998,0.3008,0.3017,0.3022,0.2803,0.3,0.3,0.3,0.3,0.2999,0,0.1801,0.1858,0.1956,0.2073,0.2158,0.2155,0.2249,0.2322,0.2433,0.2519,0.2613,0.2752,0.2868,0.2947,0.3065,0.3133,0.3141,0.3163,0.316,0.3174,0.3029,0.2996,0.3154,0.3154,0.3154,0.3154,0.3154,0.3154,0.1907,0.204,0.2071,0.224,0.2297,0.242,0.2474,0.2548,0.2617,0.2769,0.2863,0.2913,0.2997,0.3121,0.3228,0.3248,0.3292,0.3314,0.3336,0.32,0.3184,0.3169,0.3138,0.3323,0.3323,0.3472,0.3473,0.3474]}]]